| time (UTC) | temp F | wind direction | speed knots | gust knots | rain 1hr in | rain 24hr in | rain mn in | humidity % | barometer mb |
| 20260506190005 | 90 | 66 | 5.2 | 11.3 | 0.00 | 0.00 | 0.00 | 56 | 1007.6 |
| 20260506184502 | 90 | 64 | 4.3 | 9.6 | 0.00 | 0.00 | 0.00 | 58 | 1007.8 |
| 20260506183105 | 89 | 122 | 4.3 | 8.7 | 0.00 | 0.00 | 0.00 | 60 | 1008.1 |
| 20260506181558 | 88 | 139 | 5.2 | 7.8 | 0.00 | 0.00 | 0.00 | 61 | 1008.4 |
| 20260506180056 | 87 | 60 | 5.2 | 9.6 | 0.00 | 0.00 | 0.00 | 62 | 1008.5 |
| 20260506174555 | 87 | 101 | 4.3 | 7.8 | 0.00 | 0.00 | 0.00 | 63 | 1008.5 |
| 20260506173053 | 86 | 101 | 6.1 | 8.7 | 0.00 | 0.00 | 0.00 | 64 | 1008.6 |
| 20260506171553 | 86 | 106 | 3.5 | 8.7 | 0.00 | 0.00 | 0.00 | 66 | 1008.6 |
| 20260506170107 | 86 | 75 | 3.5 | 6.1 | 0.00 | 0.00 | 0.00 | 63 | 1008.7 |
| 20260506164545 | 84 | 53 | 2.6 | 5.2 | 0.00 | 0.00 | 0.00 | 66 | 1008.7 |
| 20260506163054 | 83 | 77 | 3.5 | 6.1 | 0.00 | 0.00 | 0.00 | 70 | 1008.7 |
| 20260506161543 | 82 | 68 | 3.5 | 5.2 | 0.00 | 0.00 | 0.00 | 72 | 1008.7 |
| 20260506160041 | 82 | 73 | 3.5 | 5.2 | 0.00 | 0.00 | 0.00 | 74 | 1008.7 |
| 20260506154540 | 81 | 71 | 1.7 | 5.2 | 0.00 | 0.00 | 0.00 | 76 | 1008.7 |
| 20260506153034 | 80 | 53 | 1.7 | 5.2 | 0.00 | 0.00 | 0.00 | 79 | 1008.7 |
| 20260506151534 | 79 | 73 | 2.6 | 5.2 | 0.00 | 0.00 | 0.00 | 79 | 1008.8 |
| 20260506150030 | 78 | 53 | 2.6 | 5.2 | 0.00 | 0.00 | 0.00 | 80 | 1008.7 |
| 20260506144526 | 77 | 78 | 2.6 | 6.1 | 0.00 | 0.00 | 0.00 | 80 | 1008.7 |
| 20260506143031 | 77 | 92 | 3.5 | 6.1 | 0.00 | 0.00 | 0.00 | 80 | 1008.7 |
| 20260506141525 | 77 | 113 | 0.9 | 4.3 | 0.00 | 0.00 | 0.00 | 79 | 1008.6 |
| 20260506140023 | 76 | 74 | 1.7 | 4.3 | 0.00 | 0.00 | 0.00 | 80 | 1008.4 |
| 20260506134522 | 76 | 77 | 0.9 | 3.5 | 0.00 | 0.00 | 0.00 | 80 | 1008.4 |
| 20260506133020 | 76 | 90 | 0.9 | 2.6 | 0.00 | 0.00 | 0.00 | 80 | 1008.2 |
| 20260506131522 | 75 | 68 | 1.7 | 2.6 | 0.00 | 0.00 | 0.00 | 78 | 1008.1 |
| 20260506130020 | 74 | 86 | 1.7 | 2.6 | 0.00 | 0.00 | 0.00 | 69 | 1007.9 |
| 20260506124517 | 73 | 97 | 0.9 | 3.5 | 0.00 | 0.00 | 0.00 | 51 | 1007.7 |
| 20260506123014 | 72 | 226 | 0.0 | 0.9 | 0.00 | 0.00 | 0.00 | 48 | 1007.5 |
| 20260506121518 | 71 | 226 | 0.0 | 0.0 | 0.00 | 0.00 | 0.00 | 56 | 1007.2 |
| 20260506120009 | 71 | 226 | 0.0 | 1.7 | 0.00 | 0.00 | 0.00 | 59 | 1007.1 |
| 20260506114508 | 71 | 226 | 0.0 | 0.9 | 0.00 | 0.00 | 0.00 | 45 | 1007.1 |
| 20260506113016 | 72 | 214 | 0.9 | 2.6 | 0.00 | 0.00 | 0.00 | 55 | 1007.0 |
| 20260506111506 | 72 | 214 | 0.9 | 1.7 | 0.00 | 0.00 | 0.00 | 44 | 1007.0 |
| 20260506110008 | 71 | 273 | 0.0 | 0.0 | 0.00 | 0.00 | 0.00 | 41 | 1007.1 |
| 20260506104602 | 72 | 273 | 0.0 | 0.0 | 0.00 | 0.00 | 0.00 | 50 | 1006.7 |
| 20260506103117 | 72 | 271 | 0.9 | 2.6 | 0.00 | 0.00 | 0.00 | 52 | 1006.6 |
| 20260506101557 | 73 | 266 | 0.9 | 3.5 | 0.00 | 0.00 | 0.00 | 57 | 1006.5 |
| 20260506100056 | 72 | 224 | 0.9 | 2.6 | 0.00 | 0.00 | 0.00 | 61 | 1006.4 |
| 20260506094603 | 72 | 233 | 0.0 | 0.0 | 0.00 | 0.00 | 0.00 | 58 | 1006.3 |
| 20260506093053 | 72 | 233 | 0.0 | 0.0 | 0.00 | 0.00 | 0.00 | 59 | 1006.1 |
| 20260506091550 | 72 | 233 | 0.9 | 2.6 | 0.00 | 0.00 | 0.00 | 66 | 1006.0 |
| 20260506090051 | 73 | 263 | 0.9 | 3.5 | 0.00 | 0.00 | 0.00 | 71 | 1006.0 |
| 20260506084600 | 73 | 204 | 0.0 | 0.9 | 0.00 | 0.00 | 0.00 | 79 | 1005.9 |
| 20260506083044 | 74 | 204 | 0.0 | 1.7 | 0.00 | 0.00 | 0.00 | 79 | 1005.8 |
| 20260506081543 | 74 | 205 | 0.9 | 2.6 | 0.00 | 0.00 | 0.00 | 79 | 1005.9 |
| 20260506073035 | 75 | 96 | 3.5 | 4.3 | 0.00 | 0.00 | 0.00 | 75 | 1006.4 |
| 20260506071532 | 75 | 74 | 1.7 | 7.0 | 0.00 | 0.00 | 0.00 | 75 | 1006.4 |
| 20260506061542 | 77 | 73 | 3.5 | 7.0 | 0.00 | 0.00 | 0.00 | 80 | 1006.5 |
| 20260506044521 | 82 | 85 | 6.1 | 9.6 | 0.00 | 0.00 | 0.00 | 73 | 1006.5 |
| 20260506043033 | 83 | 87 | 0.0 | 0.9 | 0.00 | 0.00 | 0.00 | 59 | 1006.3 |
| 20260506041514 | 85 | 87 | 0.0 | 1.7 | 0.00 | 0.00 | 0.00 | 60 | 1006.2 |
| 20260506040013 | 86 | 89 | 0.9 | 3.5 | 0.00 | 0.00 | 0.00 | 59 | 1006.2 |
| 20260506034513 | 86 | 65 | 2.6 | 4.3 | 0.00 | 0.00 | 0.00 | 58 | 1006.2 |
| 20260506033017 | 87 | 85 | 0.9 | 2.6 | 0.00 | 0.00 | 0.00 | 57 | 1006.1 |
| 20260506031512 | 87 | 121 | 0.9 | 4.3 | 0.00 | 0.00 | 0.00 | 56 | 1006.1 |
| 20260506030013 | 87 | 113 | 0.9 | 4.3 | 0.00 | 0.00 | 0.00 | 56 | 1005.9 |
| 20260506024527 | 87 | 148 | 2.6 | 7.0 | 0.00 | 0.00 | 0.00 | 57 | 1005.9 |
| 20260506023009 | 87 | 108 | 3.5 | 5.2 | 0.00 | 0.00 | 0.00 | 58 | 1005.7 |
| 20260506021511 | 87 | 93 | 2.6 | 6.1 | 0.00 | 0.00 | 0.00 | 57 | 1005.7 |
| 20260506020010 | 88 | 108 | 4.3 | 6.1 | 0.00 | 0.00 | 0.00 | 57 | 1005.4 |
| 20260506014509 | 88 | 82 | 6.1 | 8.7 | 0.00 | 0.00 | 0.00 | 56 | 1005.1 |
| 20260506013008 | 89 | 68 | 6.1 | 8.7 | 0.00 | 0.00 | 0.00 | 55 | 1004.8 |
| 20260506011507 | 89 | 73 | 5.2 | 9.6 | 0.00 | 0.00 | 0.00 | 54 | 1004.6 |
| 20260506010008 | 89 | 85 | 7.8 | 11.3 | 0.00 | 0.00 | 0.00 | 54 | 1004.4 |
| 20260506004507 | 90 | 108 | 7.8 | 12.2 | 0.00 | 0.00 | 0.00 | 53 | 1004.4 |
| 20260506003004 | 90 | 103 | 7.0 | 11.3 | 0.00 | 0.00 | 0.00 | 52 | 1004.3 |
| 20260506001504 | 91 | 56 | 7.8 | 13.0 | 0.00 | 0.00 | 0.00 | 51 | 1004.2 |
| 20260506000002 | 92 | 63 | 4.3 | 10.4 | 0.00 | 0.00 | 0.00 | 49 | 1004.0 |
| 20260505234504 | 92 | 71 | 7.0 | 11.3 | 0.00 | 0.00 | 0.00 | 48 | 1003.9 |
| 20260505233002 | 93 | 53 | 6.1 | 11.3 | 0.00 | 0.00 | 0.00 | 48 | 1003.9 |
| 20260505231608 | 93 | 79 | 7.0 | 10.4 | 0.00 | 0.00 | 0.00 | 48 | 1003.8 |
| 20260505230059 | 93 | 63 | 3.5 | 8.7 | 0.00 | 0.00 | 0.00 | 48 | 1003.8 |
| 20260505224555 | 93 | 65 | 5.2 | 13.0 | 0.00 | 0.00 | 0.00 | 50 | 1003.8 |
| 20260505223103 | 92 | 73 | 7.0 | 10.4 | 0.00 | 0.00 | 0.00 | 49 | 1004.0 |
| 20260505221557 | 93 | 101 | 5.2 | 8.7 | 0.00 | 0.00 | 0.00 | 48 | 1004.1 |
| 20260505220045 | 93 | 125 | 0.9 | 9.6 | 0.00 | 0.00 | 0.00 | 47 | 1004.2 |
| 20260505214602 | 93 | 68 | 5.2 | 10.4 | 0.00 | 0.00 | 0.00 | 47 | 1004.2 |
| 20260505213040 | 92 | 111 | 7.8 | 13.0 | 0.00 | 0.00 | 0.00 | 47 | 1004.4 |
| 20260505211537 | 91 | 94 | 8.7 | 11.3 | 0.00 | 0.00 | 0.00 | 48 | 1004.6 |
| 20260505210037 | 92 | 109 | 7.8 | 11.3 | 0.00 | 0.00 | 0.00 | 47 | 1004.7 |
| 20260505204533 | 91 | 67 | 5.2 | 8.7 | 0.00 | 0.00 | 0.00 | 48 | 1005.0 |
| 20260505203028 | 91 | 62 | 5.2 | 8.7 | 0.00 | 0.00 | 0.00 | 49 | 1005.4 |
| 20260505201524 | 91 | 65 | 5.2 | 8.7 | 0.00 | 0.00 | 0.00 | 47 | 1005.4 |
| 20260505200001 | 91 | 97 | 3.5 | 7.0 | 0.00 | 0.00 | 0.00 | 49 | 1005.7 |
| 20260505194558 | 90 | 65 | 3.5 | 7.8 | 0.00 | 0.00 | 0.00 | 50 | 1005.9 |
| 20260505193055 | 90 | 51 | 2.6 | 6.1 | 0.00 | 0.00 | 0.00 | 51 | 1006.1 |
| 20260505191552 | 89 | 62 | 4.3 | 7.8 | 0.00 | 0.00 | 0.00 | 52 | 1006.2 |